Time,TemperatureF,DewpointF,PressureIn,WindDirection,WindDirectionDegrees,WindSpeedMPH,WindSpeedGustMPH,Humidity,HourlyPrecipIn,Conditions,Clouds,dailyrainin,SoftwareType,DateUTC
2013-05-18 00:09:00,57.8,49.9,29.99,SSW,206,0.0,0.0,75,0.00,,,0.00,Wunderground v.1.15,2013-05-18 07:09:00,
2013-05-18 00:19:00,57.6,49.7,29.99,SSW,206,1.0,2.0,75,0.00,,,0.00,Wunderground v.1.15,2013-05-18 07:19:00,
2013-05-18 00:29:00,57.3,49.4,29.99,SSW,206,0.0,3.0,75,0.00,,,0.00,Wunderground v.1.15,2013-05-18 07:29:00,
2013-05-18 00:39:00,57.2,49.3,29.99,SSW,206,1.0,1.0,75,0.00,,,0.00,Wunderground v.1.15,2013-05-18 07:39:00,
2013-05-18 00:49:00,56.9,49.4,29.99,SSW,206,0.0,3.0,76,0.00,,,0.00,Wunderground v.1.15,2013-05-18 07:49:00,
2013-05-18 00:59:00,56.7,49.2,29.99,SSW,206,0.0,2.0,76,0.00,,,0.00,Wunderground v.1.15,2013-05-18 07:59:00,
2013-05-18 01:09:00,56.5,49.4,29.99,SSW,206,0.0,0.0,77,0.00,,,0.00,Wunderground v.1.15,2013-05-18 08:09:00,
2013-05-18 01:19:00,56.3,49.2,29.99,SSW,206,0.0,0.0,77,0.00,,,0.00,Wunderground v.1.15,2013-05-18 08:19:00,
2013-05-18 01:29:00,56.3,49.2,29.99,SSW,206,0.0,1.0,77,0.00,,,0.00,Wunderground v.1.15,2013-05-18 08:29:00,
2013-05-18 01:39:00,56.0,48.9,29.99,SSW,206,1.0,2.0,77,0.00,,,0.00,Wunderground v.1.15,2013-05-18 08:39:00,
2013-05-18 01:49:00,55.7,48.6,29.99,SSW,206,1.0,1.0,77,0.00,,,0.00,Wunderground v.1.15,2013-05-18 08:49:00,
2013-05-18 01:59:00,55.4,48.7,29.99,SSW,206,0.0,3.0,78,0.00,,,0.00,Wunderground v.1.15,2013-05-18 08:59:00,
2013-05-18 02:09:00,55.1,48.7,29.99,SSW,206,0.0,1.0,79,0.00,,,0.00,Wunderground v.1.15,2013-05-18 09:09:00,
2013-05-18 02:19:00,55.1,48.7,29.99,SSW,206,1.0,1.0,79,0.00,,,0.00,Wunderground v.1.15,2013-05-18 09:19:00,
2013-05-18 02:29:00,55.0,48.6,29.99,SSW,206,1.0,3.0,79,0.00,,,0.00,Wunderground v.1.15,2013-05-18 09:29:00,
2013-05-18 02:39:00,54.4,48.0,29.99,SSW,206,2.0,2.0,79,0.00,,,0.00,Wunderground v.1.15,2013-05-18 09:39:00,
2013-05-18 02:49:00,54.1,47.7,29.99,SSW,206,1.0,1.0,79,0.00,,,0.00,Wunderground v.1.15,2013-05-18 09:49:00,
2013-05-18 02:59:00,53.9,47.9,29.99,SSW,206,0.0,3.0,80,0.00,,,0.00,Wunderground v.1.15,2013-05-18 09:59:00,
2013-05-18 03:09:00,54.1,48.1,29.99,SSW,206,0.0,0.0,80,0.00,,,0.00,Wunderground v.1.15,2013-05-18 10:09:00,
2013-05-18 03:19:00,54.1,48.1,29.99,SSW,206,0.0,1.0,80,0.00,,,0.00,Wunderground v.1.15,2013-05-18 10:19:00,
2013-05-18 03:29:00,53.9,47.9,29.99,SSW,206,2.0,2.0,80,0.00,,,0.00,Wunderground v.1.15,2013-05-18 10:29:00,
2013-05-18 03:39:00,53.8,47.8,29.99,SSW,206,0.0,4.0,80,0.00,,,0.00,Wunderground v.1.15,2013-05-18 10:39:00,
2013-05-18 03:49:00,53.6,47.9,29.99,SSW,206,0.0,0.0,81,0.00,,,0.00,Wunderground v.1.15,2013-05-18 10:49:00,
2013-05-18 03:59:00,53.5,47.8,29.99,SSW,206,0.0,1.0,81,0.00,,,0.00,Wunderground v.1.15,2013-05-18 10:59:00,
2013-05-18 04:09:00,53.3,47.6,29.99,SSW,206,0.0,0.0,81,0.00,,,0.00,Wunderground v.1.15,2013-05-18 11:09:00,
2013-05-18 04:19:00,53.1,47.4,29.99,SSW,206,0.0,0.0,81,0.00,,,0.00,Wunderground v.1.15,2013-05-18 11:19:00,
2013-05-18 04:29:00,52.8,47.1,29.99,SSW,206,0.0,2.0,81,0.00,,,0.00,Wunderground v.1.15,2013-05-18 11:29:00,
2013-05-18 04:39:00,52.6,46.9,29.99,SSW,207,0.0,0.0,81,0.00,,,0.00,Wunderground v.1.15,2013-05-18 11:39:00,
2013-05-18 04:49:00,52.3,46.6,29.99,SSW,206,1.0,1.0,81,0.00,,,0.00,Wunderground v.1.15,2013-05-18 11:49:00,
2013-05-18 04:59:00,52.2,46.5,30.00,SSW,206,0.0,2.0,81,0.00,,,0.00,Wunderground v.1.15,2013-05-18 11:59:00,
2013-05-18 05:09:00,52.0,46.7,30.00,SSW,206,1.0,1.0,82,0.00,,,0.00,Wunderground v.1.15,2013-05-18 12:09:00,
2013-05-18 05:19:00,52.2,46.9,30.00,SSW,206,1.0,3.0,82,0.00,,,0.00,Wunderground v.1.15,2013-05-18 12:19:00,
2013-05-18 05:29:00,52.2,47.2,30.00,SSW,207,1.0,3.0,83,0.00,,,0.00,Wunderground v.1.15,2013-05-18 12:29:00,
2013-05-18 05:39:00,52.2,47.2,30.00,SSW,207,3.0,3.0,83,0.00,,,0.00,Wunderground v.1.15,2013-05-18 12:39:00,
2013-05-18 05:49:00,51.9,46.9,30.01,SSW,207,1.0,4.0,83,0.00,,,0.00,Wunderground v.1.15,2013-05-18 12:49:00,
2013-05-18 05:59:00,51.7,46.7,30.01,SSW,206,1.0,4.0,83,0.00,,,0.00,Wunderground v.1.15,2013-05-18 12:59:00,
2013-05-18 06:09:00,51.7,46.7,30.01,SSW,207,2.0,2.0,83,0.00,,,0.00,Wunderground v.1.15,2013-05-18 13:09:00,
2013-05-18 06:19:00,51.7,46.7,30.02,SSW,207,1.0,1.0,83,0.00,,,0.00,Wunderground v.1.15,2013-05-18 13:19:00,
2013-05-18 06:29:00,51.9,47.2,30.02,SSW,207,0.0,4.0,84,0.00,,,0.00,Wunderground v.1.15,2013-05-18 13:29:00,
2013-05-18 06:39:00,52.2,47.5,30.02,SSW,206,0.0,1.0,84,0.00,,,0.00,Wunderground v.1.15,2013-05-18 13:39:00,
2013-05-18 06:49:00,53.2,48.5,30.02,SSW,207,1.0,1.0,84,0.00,,,0.00,Wunderground v.1.15,2013-05-18 13:49:00,
2013-05-18 06:59:00,54.5,49.1,30.03,SSW,207,0.0,3.0,82,0.00,,,0.00,Wunderground v.1.15,2013-05-18 13:59:00,
2013-05-18 07:09:00,55.7,50.0,30.03,SSW,207,0.0,0.0,81,0.00,,,0.00,Wunderground v.1.15,2013-05-18 14:09:00,
2013-05-18 07:19:00,56.6,50.2,30.03,SSW,207,0.0,0.0,79,0.00,,,0.00,Wunderground v.1.15,2013-05-18 14:19:00,
2013-05-18 07:29:00,57.5,50.3,30.03,SSW,207,0.0,1.0,77,0.00,,,0.00,Wunderground v.1.15,2013-05-18 14:29:00,
2013-05-18 07:39:00,59.2,50.9,30.03,SSW,207,1.0,1.0,74,0.00,,,0.00,Wunderground v.1.15,2013-05-18 14:39:00,
2013-05-18 07:49:00,60.4,51.3,30.04,SSW,207,1.0,3.0,72,0.00,,,0.00,Wunderground v.1.15,2013-05-18 14:49:00,
2013-05-18 07:59:00,61.2,51.3,30.04,SSW,207,0.0,4.0,70,0.00,,,0.00,Wunderground v.1.15,2013-05-18 14:59:00,
2013-05-18 08:09:00,61.6,51.3,30.04,SSW,207,0.0,2.0,69,0.00,,,0.00,Wunderground v.1.15,2013-05-18 15:09:00,
2013-05-18 08:19:00,62.3,51.6,30.04,SSW,206,0.0,0.0,68,0.00,,,0.00,Wunderground v.1.15,2013-05-18 15:19:00,
2013-05-18 08:29:00,62.7,52.4,30.04,SSW,207,1.0,1.0,69,0.00,,,0.00,Wunderground v.1.15,2013-05-18 15:29:00,
2013-05-18 08:39:00,63.1,52.8,30.04,SSW,207,1.0,1.0,69,0.00,,,0.00,Wunderground v.1.15,2013-05-18 15:39:00,
2013-05-18 08:49:00,63.5,52.3,30.04,SSW,207,1.0,5.0,67,0.00,,,0.00,Wunderground v.1.15,2013-05-18 15:49:00,
2013-05-18 08:59:00,64.7,53.1,30.04,SW,223,2.0,5.0,66,0.00,,,0.00,Wunderground v.1.15,2013-05-18 15:59:00,
2013-05-18 09:09:00,65.0,53.8,30.04,SW,224,2.0,5.0,67,0.00,,,0.00,Wunderground v.1.15,2013-05-18 16:09:00,
2013-05-18 09:19:00,65.3,53.6,30.04,SW,225,2.0,2.0,66,0.00,,,0.00,Wunderground v.1.15,2013-05-18 16:19:00,
2013-05-18 09:29:00,66.0,53.9,30.04,WSW,251,3.0,3.0,65,0.00,,,0.00,Wunderground v.1.15,2013-05-18 16:29:00,
2013-05-18 09:39:00,66.0,53.9,30.04,SW,215,5.0,7.0,65,0.00,,,0.00,Wunderground v.1.15,2013-05-18 16:39:00,
2013-05-18 09:49:00,66.1,54.4,30.04,SSW,196,4.0,4.0,66,0.00,,,0.00,Wunderground v.1.15,2013-05-18 16:49:00,
2013-05-18 09:59:00,66.4,54.3,30.04,SSW,211,4.0,11.0,65,0.00,,,0.00,Wunderground v.1.15,2013-05-18 16:59:00,
2013-05-18 10:09:00,67.1,54.1,30.04,SSW,193,5.0,11.0,63,0.00,,,0.00,Wunderground v.1.15,2013-05-18 17:09:00,
2013-05-18 10:19:00,67.4,54.4,30.03,SW,232,5.0,5.0,63,0.00,,,0.00,Wunderground v.1.15,2013-05-18 17:19:00,
2013-05-18 10:29:00,67.8,53.9,30.04,SW,236,6.0,12.0,61,0.00,,,0.00,Wunderground v.1.15,2013-05-18 17:29:00,
2013-05-18 10:39:00,67.9,53.5,30.04,SSW,199,6.0,13.0,60,0.00,,,0.00,Wunderground v.1.15,2013-05-18 17:39:00,
2013-05-18 10:49:00,67.9,53.5,30.03,SSW,196,5.0,5.0,60,0.00,,,0.00,Wunderground v.1.15,2013-05-18 17:49:00,
2013-05-18 10:59:00,67.9,53.5,30.03,SSW,204,6.0,6.0,60,0.00,,,0.00,Wunderground v.1.15,2013-05-18 17:59:00,
2013-05-18 11:09:00,68.9,54.0,30.03,SSW,206,6.0,6.0,59,0.00,,,0.00,Wunderground v.1.15,2013-05-18 18:09:00,
2013-05-18 11:19:00,69.6,53.7,30.03,SSW,205,8.0,8.0,57,0.00,,,0.00,Wunderground v.1.15,2013-05-18 18:19:00,
2013-05-18 11:29:00,69.1,53.7,30.03,SSW,205,8.0,14.0,58,0.00,,,0.00,Wunderground v.1.15,2013-05-18 18:29:00,
2013-05-18 11:39:00,69.1,53.2,30.03,South,173,8.0,8.0,57,0.00,,,0.00,Wunderground v.1.15,2013-05-18 18:39:00,
2013-05-18 11:49:00,69.6,54.2,30.03,WSW,244,8.0,13.0,58,0.00,,,0.00,Wunderground v.1.15,2013-05-18 18:49:00,
2013-05-18 11:59:00,69.8,52.9,30.02,SW,227,8.0,8.0,55,0.00,,,0.00,Wunderground v.1.15,2013-05-18 18:59:00,
2013-05-18 12:09:00,69.6,53.7,30.02,SSW,211,9.0,13.0,57,0.00,,,0.00,Wunderground v.1.15,2013-05-18 19:09:00,
2013-05-18 12:19:00,69.8,53.4,30.02,SSW,197,9.0,17.0,56,0.00,,,0.00,Wunderground v.1.15,2013-05-18 19:19:00,
2013-05-18 12:29:00,70.9,53.9,30.02,SW,227,10.0,10.0,55,0.00,,,0.00,Wunderground v.1.15,2013-05-18 19:29:00,
2013-05-18 12:39:00,69.6,52.7,30.02,SW,221,8.0,8.0,55,0.00,,,0.00,Wunderground v.1.15,2013-05-18 19:39:00,
2013-05-18 12:49:00,69.6,52.7,30.02,WSW,252,7.0,18.0,55,0.00,,,0.00,Wunderground v.1.15,2013-05-18 19:49:00,
2013-05-18 12:59:00,69.9,53.5,30.02,SW,229,7.0,7.0,56,0.00,,,0.00,Wunderground v.1.15,2013-05-18 19:59:00,
2013-05-18 13:09:00,69.4,53.0,30.02,West,262,7.0,13.0,56,0.00,,,0.00,Wunderground v.1.15,2013-05-18 20:09:00,
2013-05-18 13:19:00,69.3,53.4,30.02,SW,233,8.0,11.0,57,0.00,,,0.00,Wunderground v.1.15,2013-05-18 20:19:00,
2013-05-18 13:29:00,69.4,53.5,30.02,SW,235,8.0,8.0,57,0.00,,,0.00,Wunderground v.1.15,2013-05-18 20:29:00,
2013-05-18 13:39:00,69.6,53.2,30.02,WSW,245,7.0,15.0,56,0.00,,,0.00,Wunderground v.1.15,2013-05-18 20:39:00,
2013-05-18 13:49:00,69.8,52.9,30.02,SW,230,8.0,8.0,55,0.00,,,0.00,Wunderground v.1.15,2013-05-18 20:49:00,
2013-05-18 13:59:00,70.3,52.9,30.02,SW,221,7.0,13.0,54,0.00,,,0.00,Wunderground v.1.15,2013-05-18 20:59:00,
2013-05-18 14:09:00,70.6,52.6,30.02,SW,219,8.0,8.0,53,0.00,,,0.00,Wunderground v.1.15,2013-05-18 21:09:00,
2013-05-18 14:19:00,70.9,52.9,30.01,West,272,7.0,15.0,53,0.00,,,0.00,Wunderground v.1.15,2013-05-18 21:19:00,
2013-05-18 14:29:00,70.4,52.4,30.02,WSW,244,7.0,13.0,53,0.00,,,0.00,Wunderground v.1.15,2013-05-18 21:29:00,
2013-05-18 14:39:00,70.3,52.4,30.02,WSW,238,8.0,8.0,53,0.00,,,0.00,Wunderground v.1.15,2013-05-18 21:39:00,
2013-05-18 14:49:00,69.9,51.5,30.01,SW,234,7.0,14.0,52,0.00,,,0.00,Wunderground v.1.15,2013-05-18 21:49:00,
2013-05-18 14:59:00,70.1,51.7,30.01,West,266,8.0,8.0,52,0.00,,,0.00,Wunderground v.1.15,2013-05-18 21:59:00,
2013-05-18 15:09:00,69.8,51.9,30.01,West,269,7.0,13.0,53,0.00,,,0.00,Wunderground v.1.15,2013-05-18 22:09:00,
2013-05-18 15:19:00,70.1,50.6,30.01,WSW,248,8.0,14.0,50,0.00,,,0.00,Wunderground v.1.15,2013-05-18 22:19:00,
2013-05-18 15:29:00,70.4,49.8,30.00,SW,223,7.0,13.0,48,0.00,,,0.00,Wunderground v.1.15,2013-05-18 22:29:00,
2013-05-18 15:39:00,70.4,49.2,30.00,West,272,7.0,14.0,47,0.00,,,0.00,Wunderground v.1.15,2013-05-18 22:39:00,
2013-05-18 15:49:00,70.6,48.2,30.00,WSW,250,7.0,7.0,45,0.00,,,0.00,Wunderground v.1.15,2013-05-18 22:49:00,
2013-05-18 15:59:00,70.1,48.4,30.00,West,259,8.0,14.0,46,0.00,,,0.00,Wunderground v.1.15,2013-05-18 22:59:00,
2013-05-18 16:09:00,70.6,47.0,30.00,SW,229,7.0,7.0,43,0.00,,,0.00,Wunderground v.1.15,2013-05-18 23:09:00,
2013-05-18 16:19:00,70.3,48.5,29.99,WSW,256,7.0,13.0,46,0.00,,,0.00,Wunderground v.1.15,2013-05-18 23:19:00,
2013-05-18 16:29:00,69.9,49.9,29.99,SW,224,6.0,6.0,49,0.00,,,0.00,Wunderground v.1.15,2013-05-18 23:29:00,
2013-05-18 16:39:00,69.9,49.9,29.99,WSW,245,7.0,7.0,49,0.00,,,0.00,Wunderground v.1.15,2013-05-18 23:39:00,
2013-05-18 16:49:00,69.9,50.4,29.99,WSW,250,6.0,6.0,50,0.00,,,0.00,Wunderground v.1.15,2013-05-18 23:49:00,
2013-05-18 16:59:00,69.9,50.4,29.98,WSW,256,4.0,4.0,50,0.00,,,0.00,Wunderground v.1.15,2013-05-18 23:59:00,
2013-05-18 17:09:00,70.1,50.6,29.98,West,263,5.0,9.0,50,0.00,,,0.00,Wunderground v.1.15,2013-05-19 00:09:00,
2013-05-18 17:19:00,69.9,51.5,29.98,SSW,207,4.0,10.0,52,0.00,,,0.00,Wunderground v.1.15,2013-05-19 00:19:00,
2013-05-18 17:29:00,69.8,50.9,29.98,SSW,211,6.0,6.0,51,0.00,,,0.00,Wunderground v.1.15,2013-05-19 00:29:00,
2013-05-18 17:39:00,69.4,52.0,29.98,WSW,243,5.0,11.0,54,0.00,,,0.00,Wunderground v.1.15,2013-05-19 00:39:00,
2013-05-18 17:49:00,68.9,51.1,29.97,SW,223,5.0,5.0,53,0.00,,,0.00,Wunderground v.1.15,2013-05-19 00:49:00,
2013-05-18 17:59:00,68.4,51.1,29.97,SW,236,5.0,9.0,54,0.00,,,0.00,Wunderground v.1.15,2013-05-19 00:59:00,
2013-05-18 18:09:00,68.1,51.3,29.97,SSW,202,3.0,10.0,55,0.00,,,0.00,Wunderground v.1.15,2013-05-19 01:09:00,
2013-05-18 18:19:00,67.8,51.5,29.97,SW,223,4.0,4.0,56,0.00,,,0.00,Wunderground v.1.15,2013-05-19 01:19:00,
2013-05-18 18:29:00,67.3,51.1,29.97,SW,218,3.0,3.0,56,0.00,,,0.00,Wunderground v.1.15,2013-05-19 01:29:00,
2013-05-18 18:39:00,66.4,52.1,29.97,WSW,240,4.0,9.0,60,0.00,,,0.00,Wunderground v.1.15,2013-05-19 01:39:00,
2013-05-18 18:49:00,65.5,51.7,29.97,SW,223,5.0,13.0,61,0.00,,,0.00,Wunderground v.1.15,2013-05-19 01:49:00,
2013-05-18 18:59:00,64.5,51.6,29.97,SW,215,5.0,5.0,63,0.00,,,0.00,Wunderground v.1.15,2013-05-19 01:59:00,
2013-05-18 19:09:00,63.7,51.7,29.97,SW,218,4.0,4.0,65,0.00,,,0.00,Wunderground v.1.15,2013-05-19 02:09:00,
2013-05-18 19:19:00,63.2,51.6,29.97,SW,216,4.0,4.0,66,0.00,,,0.00,Wunderground v.1.15,2013-05-19 02:19:00,
2013-05-18 19:29:00,62.7,51.6,29.97,SW,217,2.0,6.0,67,0.00,,,0.00,Wunderground v.1.15,2013-05-19 02:29:00,
2013-05-18 19:39:00,62.4,51.7,29.97,SW,216,1.0,1.0,68,0.00,,,0.00,Wunderground v.1.15,2013-05-19 02:39:00,
2013-05-18 19:49:00,62.3,52.0,29.97,SW,216,1.0,4.0,69,0.00,,,0.00,Wunderground v.1.15,2013-05-19 02:49:00,
2013-05-18 19:59:00,62.0,51.7,29.97,SW,217,1.0,3.0,69,0.00,,,0.00,Wunderground v.1.15,2013-05-19 02:59:00,
2013-05-18 20:09:00,61.6,51.7,29.97,SW,216,1.0,1.0,70,0.00,,,0.00,Wunderground v.1.15,2013-05-19 03:09:00,
2013-05-18 20:19:00,61.8,51.9,29.97,SW,217,0.0,3.0,70,0.00,,,0.00,Wunderground v.1.15,2013-05-19 03:19:00,
2013-05-18 20:29:00,61.6,52.1,29.97,SW,217,2.0,3.0,71,0.00,,,0.00,Wunderground v.1.15,2013-05-19 03:29:00,
2013-05-18 20:39:00,61.3,52.2,29.97,SW,216,2.0,2.0,72,0.00,,,0.00,Wunderground v.1.15,2013-05-19 03:39:00,
2013-05-18 20:49:00,61.0,51.9,29.98,SW,217,0.0,4.0,72,0.00,,,0.00,Wunderground v.1.15,2013-05-19 03:49:00,
2013-05-18 20:59:00,60.5,51.8,29.98,SW,217,0.0,2.0,73,0.00,,,0.00,Wunderground v.1.15,2013-05-19 03:59:00,
2013-05-18 21:09:00,60.2,51.9,29.98,SW,216,1.0,3.0,74,0.00,,,0.00,Wunderground v.1.15,2013-05-19 04:09:00,
2013-05-18 21:19:00,60.1,52.5,29.98,SW,217,2.0,4.0,76,0.00,,,0.00,Wunderground v.1.15,2013-05-19 04:19:00,
2013-05-18 21:29:00,59.9,53.0,29.99,SW,217,2.0,2.0,78,0.00,,,0.00,Wunderground v.1.15,2013-05-19 04:29:00,
2013-05-18 21:39:00,59.8,52.9,29.99,SW,217,2.0,2.0,78,0.00,,,0.00,Wunderground v.1.15,2013-05-19 04:39:00,
2013-05-18 21:49:00,59.6,52.7,29.99,SW,217,0.0,5.0,78,0.00,,,0.00,Wunderground v.1.15,2013-05-19 04:49:00,
2013-05-18 21:59:00,59.5,52.6,29.99,SW,217,0.0,3.0,78,0.00,,,0.00,Wunderground v.1.15,2013-05-19 04:59:00,
2013-05-18 22:09:00,59.5,53.0,29.99,SW,217,0.0,3.0,79,0.00,,,0.00,Wunderground v.1.15,2013-05-19 05:09:00,
2013-05-18 22:19:00,59.5,53.0,29.99,SW,217,0.0,3.0,79,0.00,,,0.00,Wunderground v.1.15,2013-05-19 05:19:00,
2013-05-18 22:29:00,59.5,52.6,29.99,SW,217,0.0,1.0,78,0.00,,,0.00,Wunderground v.1.15,2013-05-19 05:29:00,
2013-05-18 22:39:00,58.9,52.1,29.99,SW,217,0.0,1.0,78,0.00,,,0.00,Wunderground v.1.15,2013-05-19 05:39:00,
2013-05-18 22:49:00,58.4,51.6,29.99,SW,217,0.0,3.0,78,0.00,,,0.00,Wunderground v.1.15,2013-05-19 05:49:00,
2013-05-18 22:59:00,58.4,51.2,29.99,SW,217,1.0,1.0,77,0.00,,,0.00,Wunderground v.1.15,2013-05-19 05:59:00,
2013-05-18 23:09:00,58.6,51.4,29.99,SW,217,1.0,1.0,77,0.00,,,0.00,Wunderground v.1.15,2013-05-19 06:09:00,
2013-05-18 23:19:00,58.4,51.6,29.99,SW,217,1.0,3.0,78,0.00,,,0.00,Wunderground v.1.15,2013-05-19 06:19:00,
2013-05-18 23:29:00,58.0,51.5,29.99,SW,217,1.0,1.0,79,0.00,,,0.00,Wunderground v.1.15,2013-05-19 06:29:00,
2013-05-18 23:39:00,57.8,51.3,29.99,SW,217,0.0,4.0,79,0.00,,,0.00,Wunderground v.1.15,2013-05-19 06:39:00,
2013-05-18 23:49:00,57.8,51.7,29.99,SW,217,0.0,0.0,80,0.00,,,0.00,Wunderground v.1.15,2013-05-19 06:49:00,
2013-05-18 23:59:00,58.0,51.9,29.99,SW,217,0.0,2.0,80,0.00,,,0.00,Wunderground v.1.15,2013-05-19 06:59:00,